When you browse on this site, cookies collect data to enhance your experience and personalize the content and advertising you see.
Visit our Privacy Policy to learn more. By continuing to use the site, you agree to this use of cookies and data.
  • En España
  • Lista de países
  • Para 7 días
  • Temperatura del agua
  • Mapa Satelital
  • El tiempo en el mapa
  • Informadores
  • user-avatar
    Iniciar sesión

    Tiempo cada hora Alcalá de Henares

    Hoy, 19 Diciembre, Miércoles

    Tiempo Temperatura Precipitaciones Viento Presión Humedad
    00:00 +8°C° 0.1 mm 2 mps 713 mmHg 84%
    01:00 +8°C° 0.1 mm 2 mps 712 mmHg 87%
    02:00 +8°C° 0.1 mm 2 mps 712 mmHg 90%
    03:00 +8°C° 0.1 mm 2 mps 712 mmHg 93%
    04:00 +8°C° 0 mm 2 mps 713 mmHg 93%
    05:00 +7°C° 0 mm 3 mps 713 mmHg 94%
    06:00 +7°C° 0 mm 3 mps 713 mmHg 94%
    07:00 +7°C° 0 mm 3 mps 713 mmHg 91%
    08:00 +7°C° 0 mm 3 mps 714 mmHg 88%
    09:00 +7°C° 0 mm 3 mps 714 mmHg 86%
    10:00 +9°C° 0 mm 3 mps 714 mmHg 77%
    11:00 +10°C° 0 mm 4 mps 714 mmHg 68%
    12:00 +11°C° 0 mm 4 mps 715 mmHg 59%
    13:00 +11°C° 0 mm 4 mps 714 mmHg 58%
    14:00 +11°C° 0 mm 4 mps 714 mmHg 57%
    15:00 +11°C° 0 mm 4 mps 714 mmHg 56%
    16:00 +10°C° 0 mm 4 mps 714 mmHg 63%
    17:00 +9°C° 0 mm 3 mps 714 mmHg 69%
    18:00 +8°C° 0 mm 3 mps 715 mmHg 76%
    19:00 +7°C° 0 mm 3 mps 715 mmHg 79%
    20:00 +7°C° 0 mm 2 mps 715 mmHg 83%
    21:00 +6°C° 0 mm 2 mps 715 mmHg 86%
    22:00 +7°C° 0 mm 2 mps 716 mmHg 86%
    23:00 +7°C° 0 mm 2 mps 716 mmHg 86%

    Mañana, 20 Diciembre, Jueves

    Tiempo Temperatura Precipitaciones Viento Presión Humedad
    00:00 +7°C° 0 mm 2 mps 716 mmHg 86%
    01:00 +6°C° 0 mm 2 mps 716 mmHg 87%
    02:00 +6°C° 0 mm 2 mps 716 mmHg 88%
    03:00 +6°C° 0 mm 2 mps 716 mmHg 89%
    04:00 +7°C° 0.1 mm 1 mps 716 mmHg 90%
    05:00 +7°C° 0.1 mm 1 mps 716 mmHg 91%
    06:00 +7°C° 0.1 mm 1 mps 716 mmHg 91%
    07:00 +7°C° 0 mm 1 mps 717 mmHg 90%
    08:00 +8°C° 0 mm 1 mps 717 mmHg 89%
    09:00 +8°C° 0 mm 1 mps 717 mmHg 87%
    10:00 +9°C° 0 mm 1 mps 717 mmHg 81%
    11:00 +9°C° 0 mm 2 mps 717 mmHg 76%
    12:00 +10°C° 0 mm 2 mps 717 mmHg 70%
    13:00 +10°C° 0 mm 2 mps 717 mmHg 67%
    14:00 +12°C° 0 mm 2 mps 717 mmHg 64%
    15:00 +13°C° 0 mm 2 mps 717 mmHg 62%
    16:00 +10°C° 0 mm 2 mps 717 mmHg 67%
    17:00 +10°C° 0 mm 1 mps 718 mmHg 73%
    18:00 +9°C° 0 mm 1 mps 718 mmHg 78%
    19:00 +9°C° 0 mm 1 mps 718 mmHg 80%
    20:00 +8°C° 0 mm 1 mps 719 mmHg 83%
    21:00 +8°C° 0 mm 1 mps 719 mmHg 85%
    22:00 +8°C° 0 mm 1 mps 719 mmHg 85%
    23:00 +7°C° 0 mm 1 mps 719 mmHg 86%

    Pasado mañana, 21 Diciembre, Viernes

    Tiempo Temperatura Precipitaciones Viento Presión Humedad
    00:00 +7°C° 0 mm 1 mps 719 mmHg 87%
    01:00 +7°C° 0 mm 1 mps 719 mmHg 87%
    02:00 +7°C° 0 mm 1 mps 719 mmHg 88%
    03:00 +6°C° 0 mm 1 mps 719 mmHg 89%
    04:00 +6°C° 0 mm 1 mps 719 mmHg 89%
    05:00 +6°C° 0 mm 1 mps 719 mmHg 89%
    06:00 +6°C° 0 mm 1 mps 719 mmHg 89%
    07:00 +7°C° 0 mm 1 mps 719 mmHg 87%
    08:00 +7°C° 0 mm 1 mps 720 mmHg 85%
    09:00 +8°C° 0 mm 1 mps 720 mmHg 83%
    10:00 +10°C° 0 mm 1 mps 720 mmHg 77%
    11:00 +11°C° 0 mm 1 mps 720 mmHg 71%
    12:00 +12°C° 0 mm 2 mps 719 mmHg 65%
    13:00 +13°C° 0 mm 2 mps 719 mmHg 64%
    14:00 +13°C° 0 mm 2 mps 719 mmHg 62%
    15:00 +14°C° 0 mm 2 mps 718 mmHg 61%
    16:00 +12°C° 0 mm 1 mps 718 mmHg 67%
    17:00 +11°C° 0 mm 1 mps 719 mmHg 73%
    18:00 +9°C° 0 mm 1 mps 719 mmHg 80%
    19:00 +9°C° 0 mm 1 mps 719 mmHg 81%
    20:00 +9°C° 0 mm 1 mps 719 mmHg 82%
    21:00 +8°C° 0 mm 0 mps 719 mmHg 83%
    22:00 +7°C° 0 mm 0 mps 719 mmHg 84%
    23:00 +7°C° 0 mm 0 mps 719 mmHg 84%

    22 Diciembre, Sábado

    Tiempo Temperatura Precipitaciones Viento Presión Humedad
    00:00 +7°C° 0 mm 0 mps 719 mmHg 85%
    01:00 +7°C° 0 mm 0 mps 719 mmHg 85%
    02:00 +6°C° 0 mm 0 mps 719 mmHg 86%
    03:00 +6°C° 0 mm 0 mps 719 mmHg 86%
    04:00 +6°C° 0 mm 0 mps 718 mmHg 87%
    05:00 +7°C° 0 mm 1 mps 718 mmHg 87%
    06:00 +7°C° 0 mm 1 mps 718 mmHg 87%
    07:00 +7°C° 0 mm 1 mps 719 mmHg 85%
    08:00 +8°C° 0 mm 1 mps 719 mmHg 83%
    09:00 +9°C° 0 mm 1 mps 719 mmHg 81%
    10:00 +11°C° 0 mm 1 mps 719 mmHg 75%
    11:00 +12°C° 0 mm 1 mps 719 mmHg 68%
    12:00 +14°C° 0 mm 1 mps 719 mmHg 62%
    13:00 +14°C° 0 mm 1 mps 718 mmHg 61%
    14:00 +15°C° 0 mm 1 mps 718 mmHg 59%
    15:00 +15°C° 0 mm 1 mps 717 mmHg 58%
    16:00 +12°C° 0 mm 0 mps 717 mmHg 65%
    17:00 +11°C° 0 mm 0 mps 717 mmHg 72%
    18:00 +9°C° 0 mm 0 mps 717 mmHg 79%
    19:00 +9°C° 0 mm 0 mps 717 mmHg 79%
    20:00 +9°C° 0 mm 0 mps 717 mmHg 80%
    21:00 +8°C° 0 mm 0 mps 718 mmHg 80%
    22:00 +8°C° 0 mm 0 mps 717 mmHg 80%
    23:00 +8°C° 0 mm 0 mps 717 mmHg 80%

    23 Diciembre, Domingo

    Tiempo Temperatura Precipitaciones Viento Presión Humedad
    00:00 +9°C° 0 mm 1 mps 717 mmHg 80%
    01:00 +8°C° 0 mm 1 mps 717 mmHg 79%
    02:00 +8°C° 0 mm 1 mps 717 mmHg 79%
    03:00 +8°C° 0 mm 1 mps 717 mmHg 79%
    04:00 +8°C° 0 mm 1 mps 717 mmHg 79%
    05:00 +8°C° 0 mm 1 mps 717 mmHg 78%
    06:00 +8°C° 0 mm 1 mps 717 mmHg 78%
    07:00 +8°C° 0 mm 1 mps 717 mmHg 75%
    08:00 +9°C° 0 mm 1 mps 717 mmHg 72%
    09:00 +10°C° 0 mm 1 mps 718 mmHg 70%
    10:00 +11°C° 0 mm 1 mps 717 mmHg 63%
    11:00 +13°C° 0 mm 1 mps 717 mmHg 57%
    12:00 +15°C° 0 mm 1 mps 717 mmHg 51%
    13:00 +15°C° 0 mm 1 mps 717 mmHg 51%
    14:00 +15°C° 0 mm 1 mps 717 mmHg 50%
    15:00 +16°C° 0 mm 1 mps 716 mmHg 49%
    16:00 +14°C° 0 mm 1 mps 716 mmHg 56%
    17:00 +11°C° 0 mm 0 mps 716 mmHg 63%
    18:00 +9°C° 0 mm 0 mps 716 mmHg 70%
    19:00 +9°C° 0 mm 0 mps 716 mmHg 71%
    20:00 +9°C° 0 mm 0 mps 717 mmHg 71%
    21:00 +8°C° 0 mm 0 mps 717 mmHg 72%
    22:00 +8°C° 0 mm 0 mps 717 mmHg 72%
    23:00 +9°C° 0 mm 1 mps 717 mmHg 72%

    24 Diciembre, Lunes

    Tiempo Temperatura Precipitaciones Viento Presión Humedad
    00:00 +8°C° 0 mm 1 mps 716 mmHg 72%
    01:00 +8°C° 0 mm 1 mps 716 mmHg 72%
    02:00 +8°C° 0 mm 1 mps 716 mmHg 72%
    03:00 +8°C° 0 mm 1 mps 716 mmHg 72%
    04:00 +8°C° 0 mm 1 mps 716 mmHg 72%
    05:00 +7°C° 0 mm 1 mps 716 mmHg 72%
    06:00 +7°C° 0 mm 1 mps 716 mmHg 71%
    07:00 +8°C° 0 mm 1 mps 716 mmHg 69%
    08:00 +9°C° 0 mm 1 mps 716 mmHg 66%
    09:00 +9°C° 0 mm 1 mps 716 mmHg 63%
    10:00 +11°C° 0 mm 1 mps 716 mmHg 57%
    11:00 +13°C° 0 mm 1 mps 716 mmHg 51%
    12:00 +14°C° 0 mm 1 mps 716 mmHg 45%
    13:00 +15°C° 0 mm 1 mps 716 mmHg 44%
    14:00 +15°C° 0 mm 1 mps 715 mmHg 43%
    15:00 +16°C° 0 mm 1 mps 715 mmHg 42%
    16:00 +14°C° 0 mm 1 mps 714 mmHg 47%
    17:00 +12°C° 0 mm 1 mps 714 mmHg 51%
    18:00 +11°C° 0 mm 1 mps 714 mmHg 56%
    19:00 +11°C° 0 mm 1 mps 714 mmHg 55%
    20:00 +11°C° 0 mm 1 mps 714 mmHg 54%
    21:00 +10°C° 0 mm 1 mps 715 mmHg 53%
    22:00 +10°C° 0 mm 1 mps 715 mmHg 53%
    23:00 +10°C° 0 mm 1 mps 714 mmHg 52%
    Mostrar más